Weather History for Independence, KS

Change the Weather History Date:

Thursday, February 14, 2013

  Actual Average (KCFV) Record (KCFV)
Temperature  
Mean Temperature 42 °F -  
Max Temperature 53 °F 49 °F 73 °F (2003)
Min Temperature 32 °F 29 °F 14 °F (2007)
Degree Days  
Heating Degree Days 22    
Moisture  
Dew Point 31 °F    
Average Humidity 67    
Maximum Humidity 93    
Minimum Humidity 44    
Precipitation  
Precipitation 0.00 in - - ()
Sea Level Pressure  
Sea Level Pressure 30.06 in    
Wind  
Wind Speed 7 mph (NW)    
Max Wind Speed 15 mph    
Max Gust Speed 25 mph    
Visibility 10 miles    
Events      
Averages and records for this station are not official NWS values.
T = Trace of Precipitation, MM = Missing Value Source: NWS Daily Summary

Daily Weather History Graph

Daily Weather History Graph

Search for Another Location

Airport:

Trip Planner

Search our weather history database for the weather conditions in past years. The results will help you decide how hot, cold, wet, or windy it might be!

Date:

Astronomy

Feb. 14, 2013 Rise Set
Actual Time 7:12 AM CST 6:02 PM CST
Civil Twilight 6:46 AM CST 6:28 PM CST
Nautical Twilight 6:15 AM CST 6:59 PM CST
Astronomical Twilight 5:45 AM CST 7:29 PM CST
Moon 9:22 AM CST (2/14) 10:57 PM CST (2/14)
Length of Visible Light 11h 42m
Length of Day
10h 49m
Waxing Crescent, 22% of the Moon is Illuminated
Feb 14
Waxing Crescent
Feb 17
First Quarter
Feb 25
Full
Mar 4
Last Quarter
Mar 11
New

Hourly Weather History & Observations

Time (CST) Temp. Windchill Dew Point Humidity Pressure Visibility Wind Dir Wind Speed Gust Speed Precip Events Conditions
12:15 AM 35.6 °F 30.7 °F 30.2 °F 81% 29.94 in 10.0 mi WSW 5.8 mph - N/A   Clear
12:35 AM 35.6 °F 30.7 °F 30.2 °F 81% 29.94 in 10.0 mi WSW 5.8 mph - N/A   Clear
12:55 AM 35.6 °F 30.7 °F 30.2 °F 81% 29.94 in 10.0 mi WSW 5.8 mph - N/A   Clear
1:15 AM 35.6 °F 29.2 °F 30.2 °F 81% 29.94 in 10.0 mi WSW 8.1 mph - N/A   Clear
1:35 AM 35.6 °F 29.2 °F 30.2 °F 81% 29.94 in 10.0 mi SW 8.1 mph - N/A   Clear
1:55 AM 33.8 °F 26.4 °F 30.2 °F 87% 29.94 in 10.0 mi SW 9.2 mph - N/A   Clear
2:15 AM 35.6 °F 28.6 °F 32.0 °F 87% 29.94 in 10.0 mi SW 9.2 mph - N/A   Clear
2:35 AM 33.8 °F 27.0 °F 30.2 °F 87% 29.94 in 10.0 mi WSW 8.1 mph - N/A   Clear
2:55 AM 33.8 °F 26.4 °F 32.0 °F 93% 29.94 in 10.0 mi WSW 9.2 mph - N/A   Clear
3:15 AM 33.8 °F 27.7 °F 30.2 °F 87% 29.93 in 10.0 mi SW 6.9 mph - N/A   Clear
3:35 AM 33.8 °F 28.6 °F 30.2 °F 87% 29.93 in 10.0 mi WSW 5.8 mph - N/A   Clear
3:55 AM 32.0 °F 26.4 °F 30.2 °F 93% 29.93 in 10.0 mi SW 5.8 mph - N/A   Clear
4:15 AM 32.0 °F 25.6 °F 30.2 °F 93% 29.93 in 10.0 mi SW 6.9 mph - N/A   Clear
4:35 AM 32.0 °F 24.8 °F 30.2 °F 93% 29.93 in 10.0 mi WSW 8.1 mph - N/A   Clear
4:55 AM 32.0 °F 25.6 °F 30.2 °F 93% 29.94 in 10.0 mi West 6.9 mph - N/A   Clear
5:15 AM 32.0 °F 26.4 °F 30.2 °F 93% 29.94 in 10.0 mi WSW 5.8 mph - N/A   Clear
5:35 AM 32.0 °F 27.5 °F 30.2 °F 93% 29.95 in 10.0 mi WSW 4.6 mph - N/A   Clear
5:55 AM 32.0 °F - 30.2 °F 93% 29.96 in 10.0 mi Calm Calm - N/A   Clear
6:15 AM 32.0 °F - 28.4 °F 87% 29.97 in 10.0 mi Calm Calm - N/A   Clear
6:35 AM 32.0 °F 28.7 °F 30.2 °F 93% 29.98 in 10.0 mi WSW 3.5 mph - N/A   Clear
6:55 AM 33.8 °F - 28.4 °F 81% 29.99 in 10.0 mi Calm Calm - N/A   Clear
7:15 AM 32.0 °F - 28.4 °F 87% 30.00 in 10.0 mi Calm Calm - N/A   Clear
7:35 AM 33.8 °F - 28.4 °F 81% 30.00 in 10.0 mi Calm Calm - N/A   Clear
7:55 AM 33.8 °F 29.6 °F 28.4 °F 81% 30.02 in 10.0 mi North 4.6 mph - N/A   Clear
8:15 AM 37.4 °F 32.8 °F 32.0 °F 81% 30.02 in 10.0 mi North 5.8 mph - N/A   Clear
8:35 AM 37.4 °F 34.9 °F 32.0 °F 81% 30.03 in 10.0 mi North 3.5 mph - N/A   Clear
9:15 AM 42.8 °F 36.6 °F 32.0 °F 66% 30.04 in 10.0 mi North 11.5 mph - N/A   Clear
9:35 AM 44.6 °F 39.2 °F 33.8 °F 66% 30.05 in 10.0 mi North 10.4 mph - N/A   Clear
9:55 AM 44.6 °F 38.4 °F 33.8 °F 66% 30.05 in 10.0 mi North 12.7 mph 17.3 mph N/A   Clear
10:15 AM 44.6 °F 39.2 °F 33.8 °F 66% 30.06 in 10.0 mi North 10.4 mph - N/A   Clear
10:35 AM 46.4 °F 41.5 °F 33.8 °F 62% 30.06 in 10.0 mi North 10.4 mph - N/A   Clear
10:55 AM 48.2 °F - 32.0 °F 54% 30.07 in 10.0 mi NNE 8.1 mph - N/A   Clear
11:15 AM 50.0 °F - 32.0 °F 50% 30.07 in 10.0 mi North 12.7 mph - N/A   Clear
11:35 AM 50.0 °F - 32.0 °F 50% 30.07 in 10.0 mi North 10.4 mph - N/A   Clear
11:55 AM 50.0 °F - 32.0 °F 50% 30.07 in 10.0 mi North 10.4 mph - N/A   Clear
12:15 PM 50.0 °F - 32.0 °F 50% 30.08 in 10.0 mi NNE 8.1 mph - N/A   Clear
12:35 PM 50.0 °F - 32.0 °F 50% 30.07 in 10.0 mi NNE 8.1 mph - N/A   Clear
12:55 PM 51.8 °F - 32.0 °F 47% 30.07 in 10.0 mi NNE 5.8 mph - N/A   Clear
1:15 PM 51.8 °F - 32.0 °F 47% 30.07 in 10.0 mi NNW 6.9 mph - N/A   Clear
1:35 PM 51.8 °F - 32.0 °F 47% 30.06 in 10.0 mi NNW 8.1 mph - N/A   Clear
1:55 PM 51.8 °F - 32.0 °F 47% 30.06 in 10.0 mi North 5.8 mph - N/A   Clear
2:15 PM 51.8 °F - 32.0 °F 47% 30.06 in 10.0 mi North 9.2 mph - N/A   Clear
2:35 PM 51.8 °F - 32.0 °F 47% 30.06 in 10.0 mi NNW 6.9 mph - N/A   Clear
2:55 PM 51.8 °F - 32.0 °F 47% 30.06 in 10.0 mi North 6.9 mph - N/A   Clear
3:15 PM 53.6 °F - 32.0 °F 44% 30.06 in 10.0 mi North 8.1 mph - N/A   Clear
3:35 PM 53.6 °F - 32.0 °F 44% 30.06 in 10.0 mi North 8.1 mph - N/A   Clear
3:55 PM 51.8 °F - 32.0 °F 47% 30.06 in 10.0 mi North 12.7 mph - N/A   Clear
4:15 PM 51.8 °F - 32.0 °F 47% 30.07 in 10.0 mi North 15.0 mph - N/A   Clear
4:35 PM 50.0 °F - 32.0 °F 50% 30.08 in 10.0 mi North 13.8 mph - N/A   Scattered Clouds
4:55 PM 50.0 °F - 32.0 °F 50% 30.09 in 10.0 mi NNW 10.4 mph - N/A   Mostly Cloudy
5:15 PM 48.2 °F - 32.0 °F 54% 30.10 in 10.0 mi NNW 8.1 mph - N/A   Overcast
5:35 PM 46.4 °F 43.5 °F 33.8 °F 62% 30.10 in 10.0 mi NNW 5.8 mph - N/A   Overcast
5:55 PM 46.4 °F 42.9 °F 32.0 °F 57% 30.11 in 10.0 mi North 6.9 mph - N/A   Overcast
6:15 PM 46.4 °F 41.9 °F 32.0 °F 57% 30.11 in 10.0 mi NNW 9.2 mph - N/A   Overcast
6:35 PM 46.4 °F 41.5 °F 32.0 °F 57% 30.12 in 10.0 mi NNW 10.4 mph - N/A   Overcast
6:55 PM 46.4 °F 41.5 °F 32.0 °F 57% 30.14 in 10.0 mi NNW 10.4 mph - N/A   Overcast
7:15 PM 46.4 °F 40.4 °F 30.2 °F 53% 30.15 in 10.0 mi NNW 13.8 mph - N/A   Overcast
7:35 PM 46.4 °F 40.7 °F 28.4 °F 50% 30.16 in 10.0 mi NNW 12.7 mph 18.4 mph N/A   Overcast
7:55 PM 44.6 °F 40.7 °F 30.2 °F 57% 30.16 in 10.0 mi NW 6.9 mph - N/A   Overcast
8:15 PM 46.4 °F 41.9 °F 26.6 °F 46% 30.17 in 10.0 mi NNW 9.2 mph 25.3 mph N/A   Overcast
8:35 PM 44.6 °F 40.2 °F 28.4 °F 53% 30.17 in 10.0 mi NW 8.1 mph - N/A   Overcast
8:55 PM 44.6 °F 40.2 °F 30.2 °F 57% 30.18 in 10.0 mi WNW 8.1 mph - N/A   Overcast
9:15 PM 42.8 °F 38.0 °F 32.0 °F 66% 30.19 in 10.0 mi WNW 8.1 mph - N/A   Overcast
9:35 PM 42.8 °F 38.0 °F 32.0 °F 66% 30.19 in 10.0 mi WNW 8.1 mph - N/A   Mostly Cloudy
9:55 PM 41.0 °F 35.8 °F 32.0 °F 70% 30.20 in 10.0 mi WNW 8.1 mph - N/A   Scattered Clouds
10:15 PM 41.0 °F 36.4 °F 32.0 °F 70% 30.20 in 10.0 mi WNW 6.9 mph - N/A   Scattered Clouds
10:35 PM 41.0 °F 34.7 °F 30.2 °F 65% 30.20 in 10.0 mi NW 10.4 mph - N/A   Mostly Cloudy
10:55 PM 41.0 °F 35.2 °F 30.2 °F 65% 30.21 in 10.0 mi NW 9.2 mph - N/A   Overcast
11:15 PM 41.0 °F 35.8 °F 30.2 °F 65% 30.21 in 10.0 mi NW 8.1 mph - N/A   Overcast
11:35 PM 41.0 °F 33.1 °F 30.2 °F 65% 30.22 in 10.0 mi NNW 15.0 mph 18.4 mph N/A   Overcast
11:55 PM 39.2 °F 31.6 °F 28.4 °F 65% 30.22 in 10.0 mi NNW 12.7 mph - N/A   Scattered Clouds